Time,TemperatureF,DewpointF,PressureIn,WindDirection,WindDirectionDegrees,WindSpeedMPH,WindSpeedGustMPH,Humidity,HourlyPrecipIn,Conditions,Clouds,dailyrainin,SolarRadiationWatts/m^2,SoftwareType,DateUTC
2013-04-16 00:02:00,43.7,41.8,30.38,East,97,3.0,6.0,93,0.00,,,0.00,0,Wunderground v.1.15,2013-04-16 04:02:00,
2013-04-16 00:07:00,43.7,41.8,30.38,East,94,3.0,6.0,93,0.00,,,0.00,0,Wunderground v.1.15,2013-04-16 04:07:00,
2013-04-16 00:17:00,43.9,42.3,30.38,East,95,4.0,4.0,94,0.00,,,0.00,0,Wunderground v.1.15,2013-04-16 04:17:00,
2013-04-16 00:27:00,44.0,42.4,30.38,East,88,4.0,4.0,94,0.00,,,0.00,0,Wunderground v.1.15,2013-04-16 04:27:00,
2013-04-16 00:32:00,44.0,42.4,30.38,ESE,105,4.0,7.0,94,0.00,,,0.00,0,Wunderground v.1.15,2013-04-16 04:32:00,
2013-04-16 00:37:00,44.0,42.4,30.38,East,101,5.0,5.0,94,0.00,,,0.00,0,Wunderground v.1.15,2013-04-16 04:37:00,
2013-04-16 00:47:00,44.0,42.4,30.37,East,88,5.0,7.0,94,0.00,,,0.00,0,Wunderground v.1.15,2013-04-16 04:47:00,
2013-04-16 00:57:00,44.1,42.5,30.38,East,92,4.0,9.0,94,0.00,,,0.00,0,Wunderground v.1.15,2013-04-16 04:57:00,
2013-04-16 01:07:00,44.1,42.5,30.38,East,98,4.0,9.0,94,0.00,,,0.00,0,Wunderground v.1.15,2013-04-16 05:07:00,
2013-04-16 01:17:00,44.1,42.2,30.37,East,90,4.0,4.0,93,0.00,,,0.00,0,Wunderground v.1.15,2013-04-16 05:17:00,
2013-04-16 01:27:00,44.0,42.1,30.37,ESE,119,3.0,8.0,93,0.00,,,0.00,0,Wunderground v.1.15,2013-04-16 05:27:00,
2013-04-16 01:37:00,44.0,42.4,30.37,East,93,3.0,8.0,94,0.00,,,0.00,0,Wunderground v.1.15,2013-04-16 05:37:00,
2013-04-16 01:42:00,44.0,42.4,30.37,East,85,3.0,8.0,94,0.00,,,0.00,0,Wunderground v.1.15,2013-04-16 05:42:00,
2013-04-16 01:52:00,44.0,42.4,30.36,East,101,4.0,8.0,94,0.00,,,0.00,0,Wunderground v.1.15,2013-04-16 05:52:00,
2013-04-16 02:02:00,44.1,42.5,30.36,ENE,73,4.0,8.0,94,0.00,,,0.00,0,Wunderground v.1.15,2013-04-16 06:02:00,
2013-04-16 02:12:00,44.1,42.5,30.36,ENE,78,3.0,8.0,94,0.00,,,0.00,0,Wunderground v.1.15,2013-04-16 06:12:00,
2013-04-16 02:22:00,44.1,42.5,30.35,ENE,76,4.0,8.0,94,0.00,,,0.00,0,Wunderground v.1.15,2013-04-16 06:22:00,
2013-04-16 02:32:00,44.1,42.5,30.35,East,98,5.0,8.0,94,0.00,,,0.00,0,Wunderground v.1.15,2013-04-16 06:32:00,
2013-04-16 02:42:00,44.1,42.5,30.35,East,82,3.0,7.0,94,0.00,,,0.00,0,Wunderground v.1.15,2013-04-16 06:42:00,
2013-04-16 02:52:00,44.0,42.4,30.35,ENE,71,3.0,8.0,94,0.00,,,0.00,0,Wunderground v.1.15,2013-04-16 06:52:00,
2013-04-16 03:02:00,44.1,42.5,30.35,East,80,3.0,6.0,94,0.00,,,0.00,0,Wunderground v.1.15,2013-04-16 07:02:00,
2013-04-16 03:12:00,44.1,42.5,30.35,ENE,76,4.0,8.0,94,0.00,,,0.00,0,Wunderground v.1.15,2013-04-16 07:12:00,
2013-04-16 03:17:00,44.0,42.4,30.35,East,92,3.0,8.0,94,0.00,,,0.00,0,Wunderground v.1.15,2013-04-16 07:17:00,
2013-04-16 03:27:00,44.1,42.5,30.35,ENE,74,3.0,3.0,94,0.00,,,0.00,0,Wunderground v.1.15,2013-04-16 07:27:00,
2013-04-16 03:37:00,44.1,42.5,30.35,ENE,78,3.0,3.0,94,0.00,,,0.00,0,Wunderground v.1.15,2013-04-16 07:37:00,
2013-04-16 03:47:00,44.2,42.6,30.36,ENE,74,3.0,7.0,94,0.00,,,0.00,0,Wunderground v.1.15,2013-04-16 07:47:00,
2013-04-16 03:57:00,44.3,42.7,30.35,East,85,4.0,8.0,94,0.00,,,0.00,0,Wunderground v.1.15,2013-04-16 07:57:00,
2013-04-16 04:07:00,44.2,42.6,30.36,ENE,78,3.0,3.0,94,0.00,,,0.00,0,Wunderground v.1.15,2013-04-16 08:07:00,
2013-04-16 04:17:00,44.1,42.5,30.35,ENE,78,3.0,8.0,94,0.00,,,0.00,0,Wunderground v.1.15,2013-04-16 08:17:00,
2013-04-16 04:27:00,44.2,42.6,30.36,ENE,63,4.0,8.0,94,0.00,,,0.00,0,Wunderground v.1.15,2013-04-16 08:27:00,
2013-04-16 04:37:00,44.3,42.7,30.36,East,79,3.0,8.0,94,0.00,,,0.00,0,Wunderground v.1.15,2013-04-16 08:37:00,
2013-04-16 04:47:00,44.2,42.6,30.36,East,90,3.0,3.0,94,0.00,,,0.00,0,Wunderground v.1.15,2013-04-16 08:47:00,
2013-04-16 04:57:00,44.4,42.8,30.36,ENE,72,3.0,8.0,94,0.00,,,0.00,0,Wunderground v.1.15,2013-04-16 08:57:00,
2013-04-16 05:02:00,44.5,42.9,30.36,ENE,76,3.0,8.0,94,0.00,,,0.00,0,Wunderground v.1.15,2013-04-16 09:02:00,
2013-04-16 05:12:00,44.7,43.1,30.35,East,85,4.0,8.0,94,0.00,,,0.00,0,Wunderground v.1.15,2013-04-16 09:12:00,
2013-04-16 05:17:00,44.7,43.1,30.35,ENE,59,4.0,8.0,94,0.00,,,0.00,0,Wunderground v.1.15,2013-04-16 09:17:00,
2013-04-16 05:27:00,44.9,43.3,30.36,East,82,3.0,8.0,94,0.00,,,0.00,0,Wunderground v.1.15,2013-04-16 09:27:00,
2013-04-16 05:37:00,44.7,43.1,30.36,ESE,105,3.0,8.0,94,0.00,,,0.00,0,Wunderground v.1.15,2013-04-16 09:37:00,
2013-04-16 05:42:00,44.6,42.7,30.36,ENE,73,3.0,8.0,93,0.00,,,0.00,0,Wunderground v.1.15,2013-04-16 09:42:00,
2013-04-16 05:52:00,44.6,42.7,30.36,East,82,3.0,8.0,93,0.00,,,0.00,0,Wunderground v.1.15,2013-04-16 09:52:00,
2013-04-16 05:57:00,44.6,42.7,30.36,East,94,3.0,7.0,93,0.00,,,0.00,0,Wunderground v.1.15,2013-04-16 09:57:00,
2013-04-16 06:07:00,44.7,42.8,30.36,ENE,75,3.0,3.0,93,0.00,,,0.00,0,Wunderground v.1.15,2013-04-16 10:07:00,
2013-04-16 06:17:00,44.8,42.9,30.36,NE,50,3.0,7.0,93,0.00,,,0.00,11,Wunderground v.1.15,2013-04-16 10:17:00,
2013-04-16 06:22:00,44.9,43.0,30.36,ESE,102,3.0,9.0,93,0.00,,,0.00,18,Wunderground v.1.15,2013-04-16 10:22:00,
2013-04-16 06:32:00,45.3,43.4,30.36,NE,50,4.0,9.0,93,0.00,,,0.00,35,Wunderground v.1.15,2013-04-16 10:32:00,
2013-04-16 06:42:00,45.6,43.7,30.37,East,97,4.0,9.0,93,0.00,,,0.00,39,Wunderground v.1.15,2013-04-16 10:42:00,
2013-04-16 06:52:00,45.7,43.8,30.36,ESE,107,4.0,9.0,93,0.00,,,0.00,62,Wunderground v.1.15,2013-04-16 10:52:00,
2013-04-16 06:57:00,45.8,43.9,30.37,ENE,66,5.0,5.0,93,0.00,,,0.00,69,Wunderground v.1.15,2013-04-16 10:57:00,
2013-04-16 07:07:00,46.0,44.1,30.36,East,84,5.0,9.0,93,0.00,,,0.00,107,Wunderground v.1.15,2013-04-16 11:07:00,
2013-04-16 07:17:00,46.5,44.3,30.37,ENE,71,5.0,5.0,92,0.00,,,0.00,174,Wunderground v.1.15,2013-04-16 11:17:00,
2013-04-16 07:22:00,46.9,44.7,30.37,East,81,5.0,6.0,92,0.00,,,0.00,218,Wunderground v.1.15,2013-04-16 11:22:00,
2013-04-16 07:32:00,47.2,44.7,30.37,SE,132,6.0,11.0,91,0.00,,,0.00,130,Wunderground v.1.15,2013-04-16 11:32:00,
2013-04-16 07:42:00,47.1,44.3,30.37,ESE,105,6.0,11.0,90,0.00,,,0.00,132,Wunderground v.1.15,2013-04-16 11:42:00,
2013-04-16 07:52:00,47.3,44.5,30.37,ESE,110,5.0,12.0,90,0.00,,,0.00,181,Wunderground v.1.15,2013-04-16 11:52:00,
2013-04-16 08:02:00,47.5,44.7,30.37,East,99,5.0,12.0,90,0.00,,,0.00,183,Wunderground v.1.15,2013-04-16 12:02:00,
2013-04-16 08:12:00,47.6,44.8,30.37,East,91,6.0,12.0,90,0.00,,,0.00,200,Wunderground v.1.15,2013-04-16 12:12:00,
2013-04-16 08:22:00,47.8,44.7,30.37,East,90,7.0,13.0,89,0.00,,,0.00,230,Wunderground v.1.15,2013-04-16 12:22:00,
2013-04-16 08:32:00,48.3,45.2,30.37,ESE,109,6.0,10.0,89,0.00,,,0.00,243,Wunderground v.1.15,2013-04-16 12:32:00,
2013-04-16 08:37:00,48.3,44.9,30.37,East,99,6.0,6.0,88,0.00,,,0.00,250,Wunderground v.1.15,2013-04-16 12:37:00,
2013-04-16 08:47:00,48.8,45.1,30.37,ESE,109,6.0,6.0,87,0.00,,,0.00,288,Wunderground v.1.15,2013-04-16 12:47:00,
2013-04-16 08:57:00,49.0,45.0,30.37,ESE,104,7.0,13.0,86,0.00,,,0.00,279,Wunderground v.1.15,2013-04-16 12:57:00,
2013-04-16 09:02:00,49.1,45.1,30.36,ESE,109,8.0,13.0,86,0.00,,,0.00,308,Wunderground v.1.15,2013-04-16 13:02:00,
2013-04-16 09:12:00,49.4,45.4,30.37,East,91,7.0,9.0,86,0.00,,,0.00,417,Wunderground v.1.15,2013-04-16 13:12:00,
2013-04-16 09:22:00,50.1,45.5,30.37,ESE,114,7.0,10.0,84,0.00,,,0.00,452,Wunderground v.1.15,2013-04-16 13:22:00,
2013-04-16 09:32:00,50.3,45.3,30.37,East,92,8.0,15.0,83,0.00,,,0.00,487,Wunderground v.1.15,2013-04-16 13:32:00,
2013-04-16 09:42:00,49.7,45.1,30.37,ESE,109,11.0,15.0,84,0.00,,,0.00,591,Wunderground v.1.15,2013-04-16 13:42:00,
2013-04-16 09:52:00,50.7,45.7,30.37,East,101,10.0,16.0,83,0.00,,,0.00,612,Wunderground v.1.15,2013-04-16 13:52:00,
2013-04-16 10:02:00,51.2,46.2,30.37,East,83,9.0,18.0,83,0.00,,,0.00,661,Wunderground v.1.15,2013-04-16 14:02:00,
2013-04-16 10:12:00,51.5,45.5,30.37,East,94,8.0,18.0,80,0.00,,,0.00,469,Wunderground v.1.15,2013-04-16 14:12:00,
2013-04-16 10:22:00,51.2,46.2,30.37,East,100,8.0,19.0,83,0.00,,,0.00,526,Wunderground v.1.15,2013-04-16 14:22:00,
2013-04-16 10:32:00,51.6,46.3,30.37,SE,131,9.0,19.0,82,0.00,,,0.00,761,Wunderground v.1.15,2013-04-16 14:32:00,
2013-04-16 10:42:00,52.1,46.4,30.37,ESE,121,9.0,19.0,81,0.00,,,0.00,768,Wunderground v.1.15,2013-04-16 14:42:00,
2013-04-16 10:47:00,52.1,46.1,30.37,SE,142,9.0,19.0,80,0.00,,,0.00,775,Wunderground v.1.15,2013-04-16 14:47:00,
2013-04-16 10:57:00,52.5,46.8,30.36,East,91,9.0,9.0,81,0.00,,,0.00,796,Wunderground v.1.15,2013-04-16 14:57:00,
2013-04-16 11:07:00,52.9,47.2,30.36,ESE,113,10.0,10.0,81,0.00,,,0.00,812,Wunderground v.1.15,2013-04-16 15:07:00,
2013-04-16 11:17:00,53.2,46.5,30.35,SE,138,9.0,16.0,78,0.00,,,0.00,828,Wunderground v.1.15,2013-04-16 15:17:00,
2013-04-16 11:27:00,52.8,46.8,30.35,ESE,103,12.0,23.0,80,0.00,,,0.00,840,Wunderground v.1.15,2013-04-16 15:27:00,
2013-04-16 11:32:00,53.0,47.0,30.34,SE,128,11.0,23.0,80,0.00,,,0.00,849,Wunderground v.1.15,2013-04-16 15:32:00,
2013-04-16 11:42:00,53.3,46.6,30.34,ESE,109,9.0,23.0,78,0.00,,,0.00,860,Wunderground v.1.15,2013-04-16 15:42:00,
2013-04-16 11:52:00,52.6,46.3,30.34,ESE,121,13.0,13.0,79,0.00,,,0.00,867,Wunderground v.1.15,2013-04-16 15:52:00,
2013-04-16 11:57:00,53.9,47.5,30.33,East,101,11.0,23.0,79,0.00,,,0.00,874,Wunderground v.1.15,2013-04-16 15:57:00,
2013-04-16 12:02:00,53.9,47.5,30.33,SE,133,9.0,23.0,79,0.00,,,0.00,877,Wunderground v.1.15,2013-04-16 16:02:00,
2013-04-16 12:12:00,53.6,47.2,30.33,ENE,67,10.0,23.0,79,0.00,,,0.00,884,Wunderground v.1.15,2013-04-16 16:12:00,
2013-04-16 12:22:00,54.4,47.7,30.32,SSE,165,9.0,23.0,78,0.00,,,0.00,886,Wunderground v.1.15,2013-04-16 16:22:00,
2013-04-16 12:32:00,53.4,47.0,30.32,SE,143,11.0,19.0,79,0.00,,,0.00,891,Wunderground v.1.15,2013-04-16 16:32:00,
2013-04-16 12:37:00,53.7,47.0,30.32,SSE,153,10.0,10.0,78,0.00,,,0.00,891,Wunderground v.1.15,2013-04-16 16:37:00,
2013-04-16 12:47:00,54.1,47.4,30.32,ESE,123,9.0,9.0,78,0.00,,,0.00,893,Wunderground v.1.15,2013-04-16 16:47:00,
2013-04-16 12:52:00,54.3,46.9,30.32,ESE,112,9.0,11.0,76,0.00,,,0.00,891,Wunderground v.1.15,2013-04-16 16:52:00,
2013-04-16 12:57:00,54.2,46.8,30.31,SE,142,9.0,9.0,76,0.00,,,0.00,891,Wunderground v.1.15,2013-04-16 16:57:00,
2013-04-16 13:07:00,54.1,47.0,30.31,ESE,118,10.0,19.0,77,0.00,,,0.00,886,Wunderground v.1.15,2013-04-16 17:07:00,
2013-04-16 13:17:00,54.2,47.1,30.30,ESE,123,10.0,10.0,77,0.00,,,0.00,881,Wunderground v.1.15,2013-04-16 17:17:00,
2013-04-16 13:22:00,54.2,47.1,30.30,SE,138,10.0,21.0,77,0.00,,,0.00,879,Wunderground v.1.15,2013-04-16 17:22:00,
2013-04-16 13:32:00,54.0,47.3,30.30,SE,125,11.0,11.0,78,0.00,,,0.00,874,Wunderground v.1.15,2013-04-16 17:32:00,
2013-04-16 13:42:00,53.9,47.2,30.30,ESE,111,10.0,21.0,78,0.00,,,0.00,865,Wunderground v.1.15,2013-04-16 17:42:00,
2013-04-16 13:52:00,54.2,47.5,30.30,ESE,123,10.0,21.0,78,0.00,,,0.00,858,Wunderground v.1.15,2013-04-16 17:52:00,
2013-04-16 14:02:00,54.5,47.8,30.30,South,186,9.0,21.0,78,0.00,,,0.00,849,Wunderground v.1.15,2013-04-16 18:02:00,
2013-04-16 14:12:00,54.6,47.9,30.29,SSE,150,8.0,21.0,78,0.00,,,0.00,842,Wunderground v.1.15,2013-04-16 18:12:00,
2013-04-16 14:22:00,55.2,48.5,30.29,East,94,8.0,21.0,78,0.00,,,0.00,831,Wunderground v.1.15,2013-04-16 18:22:00,
2013-04-16 14:37:00,54.1,47.7,30.28,East,89,9.0,18.0,79,0.00,,,0.00,612,Wunderground v.1.15,2013-04-16 18:37:00,
2013-04-16 14:47:00,53.9,47.5,30.28,ESE,123,8.0,18.0,79,0.00,,,0.00,782,Wunderground v.1.15,2013-04-16 18:47:00,
2013-04-16 14:52:00,54.2,47.8,30.28,East,80,8.0,18.0,79,0.00,,,0.00,773,Wunderground v.1.15,2013-04-16 18:52:00,
2013-04-16 15:02:00,53.6,47.9,30.28,SSE,147,7.0,16.0,81,0.00,,,0.00,772,Wunderground v.1.15,2013-04-16 19:02:00,
2013-04-16 15:12:00,53.7,47.7,30.28,SSE,157,7.0,16.0,80,0.00,,,0.00,508,Wunderground v.1.15,2013-04-16 19:12:00,
2013-04-16 15:22:00,53.3,47.6,30.28,SE,135,6.0,14.0,81,0.00,,,0.00,445,Wunderground v.1.15,2013-04-16 19:22:00,
2013-04-16 15:32:00,52.7,47.7,30.28,ESE,112,6.0,14.0,83,0.00,,,0.00,406,Wunderground v.1.15,2013-04-16 19:32:00,
2013-04-16 15:42:00,52.6,47.6,30.27,SSE,148,5.0,14.0,83,0.00,,,0.00,369,Wunderground v.1.15,2013-04-16 19:42:00,
2013-04-16 15:52:00,52.8,48.1,30.27,ESE,109,4.0,10.0,84,0.00,,,0.00,338,Wunderground v.1.15,2013-04-16 19:52:00,
2013-04-16 16:02:00,52.3,47.9,30.26,SE,137,5.0,10.0,85,0.00,,,0.00,338,Wunderground v.1.15,2013-04-16 20:02:00,
2013-04-16 16:12:00,52.0,47.9,30.25,SE,138,6.0,10.0,86,0.00,,,0.00,341,Wunderground v.1.15,2013-04-16 20:12:00,
2013-04-16 16:22:00,52.7,48.3,30.25,SE,142,6.0,11.0,85,0.00,,,0.00,345,Wunderground v.1.15,2013-04-16 20:22:00,
2013-04-16 16:32:00,52.1,48.0,30.24,ESE,123,6.0,11.0,86,0.00,,,0.00,313,Wunderground v.1.15,2013-04-16 20:32:00,
2013-04-16 16:42:00,51.7,48.0,30.24,SSE,160,7.0,11.0,87,0.00,,,0.00,278,Wunderground v.1.15,2013-04-16 20:42:00,
2013-04-16 16:52:00,51.6,48.2,30.25,ESE,114,7.0,12.0,88,0.00,,,0.00,130,Wunderground v.1.15,2013-04-16 20:52:00,
2013-04-16 17:02:00,51.2,48.1,30.24,SE,142,7.0,13.0,89,0.00,,,0.00,294,Wunderground v.1.15,2013-04-16 21:02:00,
2013-04-16 17:12:00,51.8,48.7,30.24,SSE,151,7.0,12.0,89,0.00,,,0.00,207,Wunderground v.1.15,2013-04-16 21:12:00,
2013-04-16 17:22:00,51.5,48.4,30.23,SSE,161,8.0,17.0,89,0.00,,,0.00,104,Wunderground v.1.15,2013-04-16 21:22:00,
2013-04-16 17:32:00,51.2,48.4,30.23,South,178,8.0,17.0,90,0.00,,,0.00,179,Wunderground v.1.15,2013-04-16 21:32:00,
2013-04-16 17:42:00,51.7,48.6,30.22,SE,139,9.0,17.0,89,0.00,,,0.00,318,Wunderground v.1.15,2013-04-16 21:42:00,
2013-04-16 17:47:00,51.7,48.6,30.22,SE,146,10.0,10.0,89,0.00,,,0.00,279,Wunderground v.1.15,2013-04-16 21:47:00,
2013-04-16 17:57:00,51.5,48.4,30.22,SE,146,8.0,8.0,89,0.00,,,0.00,104,Wunderground v.1.15,2013-04-16 21:57:00,
2013-04-16 18:07:00,51.1,48.3,30.21,SSE,157,10.0,10.0,90,0.00,,,0.00,139,Wunderground v.1.15,2013-04-16 22:07:00,
2013-04-16 18:17:00,51.4,48.6,30.20,SE,136,11.0,18.0,90,0.00,,,0.00,185,Wunderground v.1.15,2013-04-16 22:17:00,
2013-04-16 18:27:00,51.1,48.3,30.18,South,171,14.0,14.0,90,0.00,,,0.00,141,Wunderground v.1.15,2013-04-16 22:27:00,
2013-04-16 18:37:00,51.0,48.5,30.17,SE,130,14.0,24.0,91,0.00,,,0.00,114,Wunderground v.1.15,2013-04-16 22:37:00,
2013-04-16 18:47:00,51.0,48.5,30.17,SE,145,15.0,22.0,91,0.00,,,0.00,62,Wunderground v.1.15,2013-04-16 22:47:00,
2013-04-16 18:57:00,50.7,48.2,30.16,SE,135,15.0,15.0,91,0.00,,,0.00,25,Wunderground v.1.15,2013-04-16 22:57:00,
2013-04-16 19:02:00,50.6,48.1,30.16,SSE,156,15.0,26.0,91,0.00,,,0.00,21,Wunderground v.1.15,2013-04-16 23:02:00,
2013-04-16 19:12:00,50.7,48.5,30.15,SE,131,15.0,26.0,92,0.00,,,0.00,14,Wunderground v.1.15,2013-04-16 23:12:00,
2013-04-16 19:22:00,50.8,48.6,30.15,SE,134,15.0,26.0,92,0.00,,,0.00,7,Wunderground v.1.15,2013-04-16 23:22:00,
2013-04-16 19:27:00,50.8,48.6,30.15,SSE,156,15.0,15.0,92,0.00,,,0.00,5,Wunderground v.1.15,2013-04-16 23:27:00,
2013-04-16 19:37:00,50.9,48.7,30.15,SSE,147,14.0,24.0,92,0.00,,,0.00,0,Wunderground v.1.15,2013-04-16 23:37:00,
2013-04-16 19:47:00,50.9,48.7,30.15,South,188,14.0,24.0,92,0.00,,,0.00,0,Wunderground v.1.15,2013-04-16 23:47:00,
2013-04-16 19:57:00,50.7,48.5,30.14,South,171,14.0,14.0,92,0.00,,,0.00,0,Wunderground v.1.15,2013-04-16 23:57:00,
2013-04-16 20:02:00,50.7,48.5,30.14,SSE,167,14.0,27.0,92,0.00,,,0.00,0,Wunderground v.1.15,2013-04-17 00:02:00,
2013-04-16 20:12:00,50.7,48.5,30.14,SSE,155,14.0,27.0,92,0.00,,,0.00,0,Wunderground v.1.15,2013-04-17 00:12:00,
2013-04-16 20:22:00,50.6,48.4,30.14,SSE,158,14.0,27.0,92,0.00,,,0.00,0,Wunderground v.1.15,2013-04-17 00:22:00,
2013-04-16 20:27:00,50.7,48.5,30.14,SSE,154,14.0,14.0,92,0.00,,,0.00,0,Wunderground v.1.15,2013-04-17 00:27:00,
2013-04-16 20:37:00,50.7,48.5,30.14,ESE,123,13.0,24.0,92,0.00,,,0.00,0,Wunderground v.1.15,2013-04-17 00:37:00,
2013-04-16 20:47:00,50.8,48.6,30.15,SE,137,12.0,12.0,92,0.00,,,0.00,0,Wunderground v.1.15,2013-04-17 00:47:00,
2013-04-16 20:57:00,50.8,48.3,30.16,South,186,10.0,10.0,91,0.00,,,0.00,0,Wunderground v.1.15,2013-04-17 00:57:00,
2013-04-16 21:07:00,50.6,48.1,30.16,SSE,167,8.0,27.0,91,0.00,,,0.00,0,Wunderground v.1.15,2013-04-17 01:07:00,
2013-04-16 21:12:00,50.6,48.1,30.17,South,175,7.0,27.0,91,0.00,,,0.00,0,Wunderground v.1.15,2013-04-17 01:12:00,
2013-04-16 21:22:00,50.5,48.3,30.17,SSW,203,8.0,18.0,92,0.00,,,0.00,0,Wunderground v.1.15,2013-04-17 01:22:00,
2013-04-16 21:27:00,50.6,48.4,30.17,SSW,192,7.0,18.0,92,0.00,,,0.00,0,Wunderground v.1.15,2013-04-17 01:27:00,
2013-04-16 21:37:00,50.4,48.2,30.18,SSW,196,6.0,6.0,92,0.00,,,0.00,0,Wunderground v.1.15,2013-04-17 01:37:00,
2013-04-16 21:42:00,50.3,48.1,30.18,SW,218,5.0,8.0,92,0.00,,,0.00,0,Wunderground v.1.15,2013-04-17 01:42:00,
2013-04-16 21:52:00,50.2,48.0,30.19,SW,219,5.0,18.0,92,0.00,,,0.00,0,Wunderground v.1.15,2013-04-17 01:52:00,
2013-04-16 21:57:00,50.2,48.0,30.18,SSW,211,4.0,13.0,92,0.00,,,0.00,0,Wunderground v.1.15,2013-04-17 01:57:00,
2013-04-16 22:07:00,50.1,47.9,30.18,South,180,5.0,5.0,92,0.00,,,0.00,0,Wunderground v.1.15,2013-04-17 02:07:00,
2013-04-16 22:17:00,50.1,47.9,30.18,SSW,198,5.0,5.0,92,0.00,,,0.00,0,Wunderground v.1.15,2013-04-17 02:17:00,
2013-04-16 22:27:00,50.1,47.9,30.17,SSW,203,5.0,11.0,92,0.00,,,0.00,0,Wunderground v.1.15,2013-04-17 02:27:00,
2013-04-16 22:37:00,50.0,47.8,30.17,SSW,201,5.0,11.0,92,0.00,,,0.00,0,Wunderground v.1.15,2013-04-17 02:37:00,
2013-04-16 22:47:00,50.0,47.8,30.16,South,171,5.0,11.0,92,0.00,,,0.00,0,Wunderground v.1.15,2013-04-17 02:47:00,
2013-04-16 22:57:00,49.9,47.4,30.16,SSW,194,5.0,11.0,91,0.00,,,0.00,0,Wunderground v.1.15,2013-04-17 02:57:00,
2013-04-16 23:07:00,49.8,47.3,30.16,SSE,163,6.0,11.0,91,0.00,,,0.00,0,Wunderground v.1.15,2013-04-17 03:07:00,
2013-04-16 23:17:00,49.8,47.3,30.16,South,179,6.0,6.0,91,0.00,,,0.00,0,Wunderground v.1.15,2013-04-17 03:17:00,
2013-04-16 23:22:00,49.7,47.2,30.16,South,174,6.0,12.0,91,0.00,,,0.00,0,Wunderground v.1.15,2013-04-17 03:22:00,
2013-04-16 23:32:00,49.7,47.5,30.16,South,186,5.0,12.0,92,0.00,,,0.00,0,Wunderground v.1.15,2013-04-17 03:32:00,
2013-04-16 23:37:00,49.8,47.6,30.16,SSW,201,6.0,12.0,92,0.00,,,0.00,0,Wunderground v.1.15,2013-04-17 03:37:00,
2013-04-16 23:47:00,49.9,47.7,30.15,WSW,237,6.0,12.0,92,0.00,,,0.00,0,Wunderground v.1.15,2013-04-17 03:47:00,
2013-04-16 23:57:00,49.8,47.6,30.15,South,175,6.0,6.0,92,0.00,,,0.00,0,Wunderground v.1.15,2013-04-17 03:57:00,